Location: *
(41.7492°S, 135.4150°W)
Time: 23:14:42
(UTC+00:00)

METEOR M2 - Pass Details

Date: 02 July 2022
Orbit: 818 x 827 km, 98.4° (Epoch: 17 August)

Event Time Altitude Azimuth Distance (km) Brightness Sun altitude
Rises 13:48:25 0° 56° (NE) 3,356 ? -29.2°
Reaches altitude 10° 13:51:19 10° 72° (ENE) 2,431 ? -28.7°
Maximum altitude 13:55:10 20° 118° (ESE) 1,814 ? -27.9°
Drops below altitude 10° 13:59:02 10° 163° (SSE) 2,448 ? -27.2°
Sets 14:01:57 0° 179° (S) 3,388 ? -26.7°
